QPF
0.00 0.00 0.00 0.00 0.00 0.00 0.00 0.00 0.00 0.00 0.00 0.00 0.00 0.00 0.00 0.00 0.00 0.00 0.00 0.00 0.00 0.00 0.00 0.00 0.00 0.00 0.00 0.00 0.00 0.00 0.00 0.00 0.00 0.02 0.02 0.00 0.01 0.01 0.00 0.00 0.00 0.00 0.00 0.00 0.00
0.00 0.00 0.00 0.00 0.00 0.00 0.00 0.00 0.00 0.00 0.00 0.00 0.00 0.00 0.00 0.00 0.00 0.00 0.00 0.00 0.00 0.00 0.00 0.00 0.00 0.00 0.00 0.00 0.00 0.00 0.00 0.00 0.00 0.00 0.00 0.00 0.00 0.01 0.00 0.00 0.00 0.00 0.00 0.00 0.00
0.00 0.00 0.00 0.00 0.00 0.00 0.00 0.00 0.00 0.00 0.00 0.00 0.00 0.00 0.00 0.00 0.00 0.00 0.00 0.00 0.00 0.00 0.00 0.00 0.00 0.00 0.00 0.00 0.00 0.00 0.01 0.00 0.00 0.00 0.00 0.00 0.01 0.03 0.04 0.08 0.00 0.00 0.00 0.00 0.00
0.00 0.00 0.00 0.00 0.00 0.00 0.00 0.00 0.00 0.00 0.00 0.00 0.00 0.00 0.00 0.00 0.00 0.00 0.00 0.00 0.00 0.00 0.00 0.00 0.00 0.00 0.00 0.00 0.00 0.00 0.00 0.00 0.00 0.00 0.00 0.00 0.00 0.02 0.06 0.05 0.00 0.00 0.00 0.00 0.00
0.00 0.00 0.00 0.00 0.00 0.00 0.00 0.00 0.00 0.00 0.00 0.00 0.00 0.00 0.00 0.00 0.00 0.00 0.00 0.00 0.00 0.00 0.00 0.00 0.00 0.00 0.00 0.00 0.00 0.00 0.00 0.00 0.00 0.00 0.00 0.00 0.01 0.00 0.01 0.03 0.00 0.00 0.00 0.00 0.00
0.00 0.00 0.00 0.00 0.00 0.00 0.00 0.00 0.00 0.00 0.00 0.00 0.00 0.00 0.00 0.00 0.00 0.00 0.00 0.00 0.00 0.00 0.00 0.00 0.00 0.00 0.00 0.00 0.00 0.00 0.00 0.00 0.00 0.00 0.00 0.06 0.08 0.02 0.04 0.06 0.01 0.00 0.00 0.00 0.00
0.00 0.00 0.00 0.00 0.00 0.00 0.00 0.00 0.00 0.00 0.00 0.00 0.00 0.00 0.00 0.00 0.00 0.00 0.00 0.00 0.00 0.00 0.00 0.00 0.00 0.00 0.00 0.00 0.00 0.00 0.00 0.00 0.00 0.00 0.00 0.07 0.13 0.03 0.02 0.04 0.01 0.00 0.00 0.00 0.00
0.00 0.00 0.00 0.00 0.00 0.00 0.00 0.00 0.00 0.00 0.00 0.00 0.00 0.00 0.00 0.00 0.00 0.00 0.00 0.00 0.00 0.00 0.00 0.00 0.00 0.00 0.00 0.00 0.00 0.00 0.00 0.00 0.00 0.00 0.00 0.06 0.08 0.01 0.01 0.01 0.00 0.00 0.00 0.00 0.00
0.00 0.00 0.00 0.00 0.00 0.00 0.00 0.00 0.00 0.00 0.00 0.00 0.00 0.00 0.00 0.00 0.00 0.00 0.00 0.00 0.00 0.00 0.00 0.00 0.00 0.00 0.00 0.00 0.00 0.00 0.00 0.00 0.00 0.00 0.00 0.07 0.14 0.03 0.00 0.00 0.00 0.00 0.00 0.00 0.00
0.00 0.00 0.00 0.00 0.00 0.00 0.00 0.00 0.00 0.00 0.00 0.00 0.00 0.00 0.00 0.00 0.00 0.00 0.00 0.00 0.00 0.00 0.00 0.00 0.00 0.00 0.00 0.00 0.00 0.00 0.00 0.00 0.00 0.00 0.01 0.05 0.12 0.07 0.02 0.00 0.00 0.00 0.00 0.00 0.00
0.00 0.00 0.00 0.00 0.00 0.00 0.00 0.00 0.00 0.00 0.00 0.00 0.00 0.00 0.00 0.00 0.00 0.00 0.00 0.00 0.00 0.00 0.00 0.00 0.00 0.00 0.00 0.00 0.00 0.00 0.00 0.00 0.00 0.00 0.00 0.00 0.00 0.00 0.00 0.00 0.00 0.00 0.00 0.01 0.00
0.00 0.00 0.00 0.00 0.00 0.00 0.00 0.00 0.00 0.00 0.00 0.00 0.00 0.00 0.00 0.00 0.00 0.00 0.00 0.00 0.00 0.00 0.00 0.00 0.00 0.00 0.00 0.00 0.00 0.00 0.00 0.00 0.00 0.00 0.00 0.00 0.00 0.00 0.00 0.00 0.00 0.00 0.00 0.01 0.01
0.00 0.00 0.00 0.00 0.00 0.00 0.00 0.00 0.00 0.00 0.00 0.00 0.00 0.00 0.00 0.00 0.00 0.00 0.00 0.00 0.00 0.00 0.00 0.00 0.00 0.00 0.00 0.00 0.00 0.00 0.00 0.00 0.00 0.00 0.00 0.00 0.00 0.00 0.00 0.00 0.00 0.01 0.01 0.01 0.01
0.00 0.00 0.00 0.00 0.00 0.00 0.00 0.00 0.00 0.00 0.00 0.00 0.00 0.00 0.00 0.00 0.00 0.00 0.00 0.00 0.00 0.00 0.00 0.00 0.00 0.00 0.00 0.00 0.00 0.00 0.00 0.00 0.00 0.00 0.00 0.00 0.00 0.00 0.00 0.00 0.00 0.01 0.02 0.03 0.03
0.00 0.00 0.00 0.00 0.00 0.00 0.00 0.00 0.00 0.00 0.00 0.00 0.00 0.00 0.00 0.00 0.00 0.00 0.00 0.00 0.00 0.00 0.00 0.00 0.00 0.00 0.00 0.00 0.00 0.00 0.00 0.00 0.00 0.00 0.00 0.00 0.00 0.00 0.00 0.00 0.00 0.00 0.01 0.00 0.00
0.00 0.00 0.00 0.00 0.00 0.00 0.00 0.00 0.00 0.00 0.00 0.00 0.00 0.00 0.00 0.00 0.00 0.00 0.00 0.00 0.00 0.00 0.00 0.00 0.00 0.00 0.00 0.00 0.00 0.00 0.00 0.00 0.00 0.00 0.00 0.00 0.00 0.00 0.00 0.00 0.00 0.00 0.00 0.00 0.00
0.00 0.00 0.00 0.00 0.00 0.00 0.00 0.00 0.00 0.00 0.00 0.00 0.00 0.00 0.00 0.00 0.00 0.00 0.00 0.00 0.00 0.00 0.00 0.00 0.00 0.00 0.00 0.00 0.00 0.00 0.00 0.00 0.00 0.00 0.00 0.00 0.00 0.00 0.00 0.00 0.00 0.00 0.00 0.00 0.00
0.00 0.00 0.00 0.00 0.00 0.00 0.00 0.00 0.00 0.00 0.00 0.00 0.00 0.00 0.00 0.00 0.00 0.00 0.00 0.00 0.00 0.00 0.00 0.00 0.00 0.00 0.00 0.00 0.00 0.00 0.00 0.00 0.00 0.00 0.00 0.00 0.00 0.00 0.00 0.00 0.00 0.00 0.00 0.00 0.00
0.00 0.00 0.00 0.00 0.00 0.00 0.00 0.00 0.00 0.00 0.00 0.00 0.00 0.00 0.00 0.00 0.00 0.00 0.00 0.00 0.00 0.00 0.00 0.00 0.00 0.00 0.00 0.00 0.00 0.00 0.00 0.00 0.00 0.00 0.00 0.00 0.00 0.00 0.00 0.00 0.00 0.00 0.00 0.00 0.00
0.00 0.00 0.00 0.00 0.00 0.00 0.00 0.00 0.00 0.00 0.00 0.00 0.00 0.00 0.00 0.00 0.00 0.00 0.00 0.00 0.00 0.00 0.00 0.00 0.00 0.00 0.00 0.00 0.00 0.00 0.00 0.00 0.00 0.00 0.00 0.00 0.00 0.00 0.00 0.00 0.00 0.00 0.00 0.00 0.00
0.00 0.00 0.00 0.00 0.00 0.00 0.00 0.00 0.00 0.00 0.00 0.00 0.00 0.00 0.00 0.00 0.00 0.00 0.00 0.00 0.00 0.00 0.00 0.00 0.00 0.00 0.00 0.00 0.00 0.00 0.00 0.00 0.00 0.00 0.00 0.00 0.00 0.00 0.00 0.00 0.00 0.00 0.00 0.00 0.00
0.00 0.00 0.00 0.00 0.00 0.00 0.00 0.00 0.00 0.00 0.00 0.00 0.00 0.00 0.00 0.00 0.00 0.00 0.00 0.00 0.00 0.00 0.00 0.00 0.00 0.00 0.00 0.00 0.00 0.00 0.00 0.00 0.00 0.00 0.00 0.00 0.00 0.01 0.00 0.00 0.00 0.00 0.00 0.00 0.00
0.00 0.00 0.00 0.00 0.00 0.00 0.00 0.00 0.00 0.00 0.00 0.00 0.00 0.00 0.00 0.00 0.00 0.00 0.00 0.00 0.00 0.00 0.00 0.00 0.00 0.00 0.00 0.00 0.00 0.00 0.00 0.00 0.00 0.00 0.00 0.00 0.00 0.01 0.00 0.00 0.00 0.00 0.00 0.00 0.00
0.00 0.00 0.00 0.00 0.00 0.00 0.00 0.00 0.00 0.00 0.00 0.00 0.00 0.00 0.00 0.00 0.00 0.00 0.00 0.00 0.00 0.00 0.00 0.00 0.00 0.00 0.00 0.00 0.00 0.00 0.00 0.00 0.00 0.00 0.00 0.00 0.00 0.00 0.00 0.00 0.00 0.00 0.00 0.00 0.00
0.00 0.00 0.00 0.00 0.00 0.00 0.00 0.00 0.00 0.00 0.00 0.00 0.00 0.00 0.00 0.00 0.00 0.00 0.00 0.00 0.00 0.00 0.00 0.00 0.00 0.00 0.00 0.00 0.00 0.00 0.00 0.00 0.00 0.00 0.00 0.00 0.00 0.00 0.00 0.00 0.00 0.00 0.00 0.00 0.00
0.00 0.00 0.00 0.00 0.00 0.00 0.00 0.00 0.00 0.00 0.00 0.00 0.00 0.00 0.00 0.00 0.00 0.00 0.00 0.00 0.00 0.00 0.00 0.00 0.00 0.00 0.00 0.00 0.00 0.00 0.00 0.00 0.00 0.00 0.00 0.00 0.00 0.00 0.00 0.00 0.00 0.00 0.00 0.00 0.00
0.00 0.00 0.00 0.00 0.00 0.00 0.00 0.00 0.00 0.00 0.00 0.00 0.00 0.00 0.00 0.00 0.00 0.00 0.00 0.00 0.00 0.00 0.00 0.00 0.00 0.00 0.00 0.00 0.00 0.00 0.00 0.00 0.00 0.00 0.00 0.00 0.00 0.00 0.00 0.00 0.00 0.00 0.00 0.00 0.00
MSLP
1017.99 1017.64 1017.26 1016.90 1016.57 1016.28 1016.04 1015.83 1015.57 1015.31 1014.96 1014.72 1014.49 1014.40 1014.42 1014.34 1014.06 1013.25 1011.11 1009.84 1009.97 1010.38 1010.33 1009.91 1009.64 1009.42 1009.40 1008.66 1008.75 1008.21 1006.63 1006.24 1006.84 1007.35 1008.92 1009.96 1010.64 1011.16 1011.06 1010.51 1010.44 1010.48 1010.20 1011.59 1012.92
1017.86 1017.61 1017.25 1016.82 1016.41 1016.07 1015.81 1015.56 1015.40 1015.17 1014.90 1014.58 1014.44 1014.18 1014.13 1014.22 1012.98 1010.95 1009.16 1009.80 1010.14 1010.25 1009.57 1009.08 1008.78 1008.94 1008.41 1008.12 1007.88 1007.16 1005.75 1006.78 1007.44 1007.57 1008.61 1009.67 1010.46 1010.96 1010.93 1010.86 1010.94 1010.72 1010.86 1012.30 1013.21
1017.58 1017.24 1016.98 1016.66 1016.20 1015.88 1015.60 1015.36 1015.10 1014.98 1014.74 1014.50 1014.29 1014.03 1013.90 1013.66 1011.64 1007.89 1008.54 1009.61 1009.92 1010.04 1009.10 1008.61 1008.56 1008.40 1007.76 1007.61 1007.38 1006.90 1006.24 1007.01 1007.61 1008.03 1008.76 1009.93 1010.96 1011.14 1011.00 1010.86 1011.22 1010.76 1011.43 1012.44 1013.17
1017.60 1017.08 1016.67 1016.28 1015.98 1015.73 1015.39 1015.15 1014.89 1014.67 1014.58 1014.34 1014.12 1013.81 1013.79 1012.76 1009.42 1008.27 1009.13 1009.45 1009.84 1009.23 1008.88 1008.68 1008.37 1007.84 1007.09 1006.93 1007.00 1006.65 1006.89 1006.79 1007.59 1008.78 1009.46 1009.89 1011.03 1011.18 1011.32 1011.08 1010.86 1011.06 1011.66 1012.25 1012.88
1017.41 1017.02 1016.58 1016.08 1015.71 1015.42 1015.09 1014.92 1014.73 1014.40 1014.28 1014.14 1013.88 1013.65 1013.47 1011.08 1008.42 1008.95 1009.40 1009.46 1009.61 1009.04 1008.56 1008.29 1007.94 1007.28 1006.69 1006.48 1006.86 1006.57 1006.40 1006.64 1007.29 1008.19 1008.78 1009.92 1010.32 1010.90 1011.10 1011.23 1011.22 1011.27 1011.93 1012.31 1012.74
1017.10 1016.78 1016.48 1016.04 1015.40 1015.04 1014.72 1014.58 1014.44 1014.30 1013.96 1013.92 1013.68 1013.43 1012.09 1009.26 1008.47 1008.96 1008.92 1009.14 1008.91 1008.70 1008.35 1008.22 1007.71 1007.53 1006.74 1006.52 1006.20 1006.15 1006.22 1006.28 1006.88 1007.57 1008.49 1009.64 1010.36 1010.51 1011.18 1011.70 1011.54 1011.68 1012.02 1012.42 1012.72
1016.93 1016.49 1016.12 1015.67 1015.18 1014.75 1014.33 1014.10 1013.96 1013.86 1013.59 1013.60 1013.41 1012.74 1010.75 1008.89 1008.56 1008.78 1009.00 1008.70 1008.71 1008.32 1008.14 1008.14 1008.09 1007.75 1006.77 1006.40 1006.34 1006.12 1005.78 1005.97 1006.41 1007.06 1007.66 1008.95 1010.12 1010.48 1011.14 1011.70 1011.68 1011.82 1011.99 1012.38 1012.76
1016.60 1016.27 1015.75 1015.36 1014.97 1014.54 1014.06 1013.61 1013.32 1013.27 1013.17 1013.26 1013.15 1011.87 1008.72 1008.91 1008.57 1008.84 1008.89 1009.09 1009.17 1008.72 1008.25 1008.64 1008.38 1007.59 1006.79 1006.51 1006.20 1005.51 1005.25 1004.67 1005.83 1006.50 1007.40 1008.50 1009.19 1010.31 1011.52 1011.51 1011.60 1011.78 1011.98 1012.45 1012.80
1016.30 1015.87 1015.44 1015.12 1014.70 1014.26 1013.95 1013.24 1012.36 1012.56 1012.86 1012.94 1012.40 1010.64 1008.53 1009.42 1008.64 1008.54 1008.55 1008.62 1008.97 1008.96 1008.94 1008.97 1008.39 1007.18 1006.96 1005.78 1005.09 1004.65 1003.47 1003.85 1005.30 1006.19 1006.88 1007.93 1008.93 1010.10 1010.72 1011.10 1011.11 1011.63 1011.82 1012.24 1012.70
1015.98 1015.60 1015.16 1014.75 1014.47 1013.98 1013.69 1013.37 1013.00 1012.41 1012.47 1011.92 1011.38 1009.98 1008.51 1007.42 1007.75 1008.38 1008.77 1008.66 1008.71 1008.77 1008.70 1008.64 1007.73 1006.81 1005.75 1004.70 1003.27 1003.18 1002.91 1003.78 1004.32 1006.08 1006.71 1007.58 1008.62 1009.53 1009.97 1010.14 1010.83 1011.16 1011.56 1011.93 1012.31
1015.46 1015.26 1014.78 1014.42 1014.13 1013.72 1012.96 1012.36 1012.18 1011.28 1010.63 1008.68 1008.07 1007.50 1006.76 1007.29 1007.80 1008.07 1008.42 1008.32 1008.36 1008.39 1007.40 1007.76 1006.78 1005.48 1004.85 1004.25 1003.28 1003.08 1003.18 1003.44 1004.51 1005.54 1005.82 1006.12 1006.65 1008.44 1009.34 1009.83 1010.40 1011.06 1011.29 1011.43 1011.76
1015.15 1014.77 1014.45 1014.18 1013.81 1013.28 1012.53 1010.06 1010.15 1010.14 1008.34 1007.98 1007.85 1007.60 1007.08 1006.57 1006.76 1007.49 1007.94 1007.56 1007.66 1007.06 1006.86 1007.37 1005.92 1005.30 1005.08 1004.99 1004.66 1003.91 1003.54 1003.70 1004.88 1005.29 1005.61 1006.46 1006.70 1007.80 1008.84 1009.48 1009.92 1010.58 1011.03 1011.40 1011.58
1014.78 1014.35 1014.03 1013.90 1013.59 1012.89 1010.86 1010.04 1010.04 1009.81 1007.95 1007.23 1006.79 1006.37 1006.16 1006.35 1005.79 1006.82 1007.35 1006.66 1006.74 1006.35 1006.56 1005.72 1005.28 1005.68 1005.52 1005.38 1004.70 1004.04 1003.49 1003.86 1004.00 1005.12 1005.39 1006.16 1006.57 1007.71 1008.87 1009.17 1010.03 1010.65 1011.00 1011.04 1011.20
1014.37 1014.04 1013.78 1013.53 1013.61 1011.17 1010.04 1010.02 1009.72 1009.56 1006.86 1006.60 1006.04 1005.62 1006.09 1005.38 1005.45 1006.15 1006.58 1006.08 1006.12 1006.06 1006.16 1005.49 1005.39 1005.75 1005.51 1004.98 1004.73 1003.86 1004.34 1004.48 1004.58 1004.40 1003.86 1005.48 1005.99 1007.54 1008.45 1009.51 1010.51 1010.69 1011.05 1011.21 1011.20
1013.98 1013.78 1013.60 1013.60 1011.46 1010.13 1010.15 1009.72 1009.48 1009.14 1005.99 1006.41 1005.51 1005.62 1005.33 1005.05 1005.35 1006.19 1006.30 1006.24 1005.57 1005.58 1006.06 1005.04 1005.38 1005.51 1005.22 1004.83 1005.09 1004.06 1004.84 1004.84 1004.50 1004.24 1004.15 1004.86 1004.94 1007.50 1008.62 1009.62 1010.23 1010.66 1011.12 1011.23 1011.25
1013.67 1013.40 1013.31 1012.42 1011.32 1010.15 1010.02 1009.62 1009.27 1007.41 1006.15 1006.00 1005.58 1005.09 1005.06 1005.07 1005.30 1006.12 1006.32 1006.31 1005.72 1005.82 1005.81 1005.19 1005.66 1005.58 1005.20 1005.32 1005.50 1005.36 1005.29 1005.22 1004.91 1004.00 1003.75 1003.44 1004.52 1007.89 1009.43 1011.21 1011.00 1011.20 1011.10 1011.08 1011.64
1013.29 1012.87 1012.92 1011.52 1009.95 1010.16 1009.84 1008.76 1007.25 1005.86 1007.12 1006.47 1005.81 1005.16 1004.64 1005.21 1005.86 1005.84 1005.95 1005.94 1005.69 1005.70 1005.50 1006.06 1006.14 1006.71 1006.51 1005.77 1005.67 1005.54 1004.57 1004.18 1004.18 1003.61 1002.71 1003.93 1005.36 1009.25 1010.95 1012.00 1012.38 1012.55 1012.34 1011.90 1011.23
1013.17 1012.57 1012.04 1010.91 1010.46 1010.15 1009.02 1007.63 1006.55 1007.66 1007.04 1007.16 1006.54 1005.68 1005.37 1005.74 1006.49 1006.57 1006.50 1006.46 1006.92 1006.23 1005.26 1005.58 1006.71 1006.77 1007.11 1006.12 1005.28 1005.03 1003.98 1002.48 1002.34 1002.35 1002.73 1005.03 1006.14 1010.32 1011.53 1012.40 1013.46 1014.40 1014.23 1013.61 1012.58
1012.79 1011.18 1009.71 1009.80 1010.12 1009.70 1008.12 1006.84 1007.87 1008.24 1008.24 1007.53 1006.75 1005.92 1006.23 1006.54 1006.60 1007.11 1007.06 1007.42 1008.16 1007.54 1006.00 1005.68 1006.86 1007.95 1007.92 1007.18 1006.66 1005.08 1004.29 1003.34 1002.37 1002.20 1002.68 1005.04 1009.05 1010.88 1012.11 1013.09 1014.26 1015.18 1015.30 1014.51 1013.16
1011.48 1009.78 1009.24 1009.36 1009.60 1008.72 1007.31 1008.16 1008.82 1009.32 1008.96 1008.11 1006.64 1006.76 1006.23 1006.77 1007.04 1007.23 1007.96 1009.09 1008.76 1008.82 1008.07 1007.06 1007.16 1008.13 1008.26 1008.01 1007.33 1006.23 1005.30 1004.54 1003.60 1002.60 1002.86 1005.26 1008.67 1010.74 1013.17 1014.64 1015.50 1016.31 1016.36 1015.74 1014.84
1011.18 1008.75 1009.12 1009.19 1009.09 1007.50 1007.45 1008.98 1009.55 1009.78 1009.50 1008.62 1008.18 1007.86 1007.51 1007.70 1007.50 1008.20 1009.24 1010.06 1010.04 1009.35 1008.65 1007.83 1007.20 1008.40 1008.53 1008.28 1007.64 1007.05 1005.92 1005.28 1003.94 1003.46 1003.31 1005.42 1009.62 1013.51 1015.12 1016.30 1016.83 1017.44 1017.45 1016.92 1016.18
1010.26 1008.18 1008.94 1008.82 1007.80 1008.21 1008.58 1009.79 1010.86 1010.05 1009.81 1009.39 1009.17 1008.66 1008.71 1008.80 1008.78 1009.09 1009.77 1010.59 1010.98 1010.29 1009.28 1009.30 1007.91 1007.79 1008.85 1010.22 1010.09 1008.70 1007.42 1006.47 1004.72 1004.66 1004.74 1005.69 1012.02 1015.14 1016.50 1017.34 1017.65 1017.94 1018.03 1017.83 1017.34
1010.00 1009.12 1008.76 1008.05 1007.60 1008.65 1009.90 1010.46 1010.87 1010.44 1010.50 1010.05 1009.86 1009.84 1009.77 1009.54 1009.79 1010.14 1010.73 1011.73 1011.30 1010.87 1010.62 1010.07 1009.00 1008.72 1009.50 1010.02 1010.26 1009.27 1008.99 1007.94 1006.97 1005.88 1005.46 1007.21 1012.74 1016.17 1017.38 1017.95 1018.26 1018.24 1018.23 1018.15 1017.96
1010.74 1009.00 1009.17 1009.12 1009.71 1009.39 1009.91 1010.45 1010.94 1011.59 1011.29 1011.09 1010.84 1010.48 1010.11 1010.04 1010.08 1010.54 1011.18 1011.90 1011.88 1011.77 1011.88 1010.97 1009.83 1009.29 1008.78 1009.26 1009.34 1009.65 1009.67 1009.19 1007.88 1006.66 1006.62 1008.62 1013.43 1016.64 1017.74 1018.33 1018.62 1018.54 1018.44 1018.18 1017.99
1011.43 1010.73 1011.00 1009.74 1010.17 1010.35 1010.72 1011.09 1011.14 1011.36 1011.76 1011.66 1011.38 1011.12 1010.62 1010.41 1010.48 1010.86 1011.36 1011.83 1012.13 1012.49 1012.04 1011.15 1010.46 1010.69 1010.80 1011.11 1010.98 1010.77 1010.42 1010.06 1009.13 1008.80 1008.60 1009.82 1013.75 1016.61 1017.83 1018.48 1018.79 1018.70 1018.60 1018.57 1018.52
1011.36 1011.01 1011.44 1011.15 1011.28 1010.86 1011.40 1011.45 1011.62 1011.98 1011.90 1011.82 1011.66 1011.66 1011.47 1011.14 1011.21 1011.06 1011.36 1011.57 1011.78 1012.41 1012.27 1012.20 1011.60 1011.61 1011.59 1012.01 1011.77 1011.28 1011.14 1010.87 1010.50 1010.41 1010.34 1012.78 1015.44 1017.25 1018.09 1018.32 1018.60 1018.82 1018.79 1018.71 1018.76
1012.88 1012.55 1011.28 1011.75 1011.25 1010.96 1011.44 1011.86 1012.19 1012.42 1012.94 1012.59 1012.43 1011.99 1012.40 1012.94 1012.67 1012.51 1012.64 1012.71 1012.77 1012.67 1012.70 1012.64 1012.27 1012.19 1011.38 1012.61 1012.26 1011.61 1010.89 1011.08 1011.16 1011.72 1011.18 1012.91 1015.12 1017.00 1017.66 1017.84 1018.22 1018.58 1018.88 1019.08 1019.22
Thickness
5695 5696 5699 5701 5703 5705 5707 5710 5713 5716 5721 5725 5729 5732 5734 5736 5741 5751 5764 5782 5784 5784 5787 5790 5791 5792 5794 5793 5796 5803 5790 5785 5785 5785 5773 5781 5770 5780 5788 5787 5791 5797 5800 5795 5790
5692 5692 5693 5696 5698 5700 5703 5706 5709 5713 5716 5720 5724 5729 5732 5734 5746 5760 5783 5780 5781 5783 5787 5785 5782 5787 5785 5789 5795 5794 5795 5782 5792 5796 5781 5784 5779 5776 5780 5781 5780 5789 5800 5793 5786
5688 5689 5689 5691 5694 5695 5698 5701 5704 5708 5712 5715 5719 5724 5729 5733 5748 5778 5784 5779 5779 5781 5791 5793 5791 5787 5782 5790 5792 5795 5785 5792 5791 5794 5791 5776 5765 5774 5777 5773 5777 5785 5786 5786 5783
5682 5684 5686 5688 5689 5691 5694 5696 5700 5703 5708 5711 5715 5720 5724 5735 5752 5776 5775 5776 5776 5783 5785 5781 5782 5778 5781 5778 5794 5784 5793 5798 5792 5787 5776 5771 5766 5763 5771 5776 5793 5796 5793 5789 5783
5678 5680 5681 5683 5686 5688 5690 5692 5695 5700 5703 5708 5711 5715 5723 5738 5757 5768 5768 5771 5773 5779 5776 5775 5773 5780 5776 5786 5787 5785 5794 5800 5798 5792 5788 5780 5774 5767 5774 5785 5792 5795 5790 5788 5786
5675 5675 5676 5678 5682 5686 5687 5689 5691 5694 5699 5702 5708 5711 5725 5737 5761 5761 5766 5768 5771 5773 5773 5776 5776 5784 5783 5784 5786 5796 5797 5798 5799 5794 5790 5773 5770 5781 5779 5780 5784 5787 5785 5786 5786
5670 5671 5672 5675 5678 5681 5685 5688 5689 5692 5696 5699 5703 5712 5723 5738 5756 5757 5759 5764 5769 5771 5767 5777 5781 5776 5786 5778 5795 5795 5786 5794 5795 5795 5789 5788 5764 5765 5779 5778 5778 5781 5786 5786 5786
5665 5666 5668 5671 5673 5676 5680 5686 5689 5690 5693 5695 5699 5712 5731 5743 5749 5749 5754 5752 5760 5768 5772 5774 5779 5778 5780 5790 5786 5786 5792 5782 5793 5796 5794 5785 5758 5771 5769 5772 5775 5780 5782 5782 5783
5661 5663 5664 5666 5668 5671 5674 5681 5689 5688 5687 5691 5700 5711 5721 5734 5736 5747 5752 5745 5750 5757 5762 5766 5769 5771 5774 5772 5773 5785 5783 5787 5781 5798 5792 5782 5758 5772 5781 5775 5778 5778 5781 5781 5782
5658 5659 5661 5663 5663 5666 5669 5672 5675 5681 5683 5690 5696 5703 5719 5727 5738 5740 5746 5747 5741 5745 5745 5749 5756 5755 5769 5773 5762 5775 5786 5787 5784 5784 5787 5777 5765 5772 5782 5785 5778 5782 5782 5781 5782
5657 5656 5658 5659 5659 5661 5666 5674 5678 5678 5684 5701 5710 5711 5723 5732 5737 5732 5739 5738 5740 5735 5734 5743 5741 5747 5763 5778 5788 5792 5788 5783 5787 5793 5790 5791 5794 5781 5784 5784 5780 5779 5781 5783 5785
5653 5655 5654 5654 5655 5658 5663 5680 5677 5680 5687 5698 5698 5702 5716 5730 5717 5724 5737 5726 5726 5724 5740 5729 5734 5759 5769 5768 5769 5777 5777 5776 5780 5791 5789 5780 5783 5785 5784 5782 5785 5781 5779 5780 5787
5651 5652 5652 5650 5650 5655 5670 5670 5673 5676 5680 5689 5699 5702 5709 5718 5716 5714 5726 5731 5723 5726 5727 5731 5745 5755 5754 5752 5758 5770 5774 5772 5776 5781 5790 5777 5773 5774 5776 5787 5784 5783 5785 5788 5788
5650 5649 5648 5647 5647 5664 5666 5669 5671 5673 5675 5674 5687 5698 5703 5717 5706 5726 5730 5728 5723 5719 5726 5734 5749 5741 5745 5749 5760 5755 5773 5771 5771 5773 5772 5784 5744 5764 5776 5773 5770 5778 5780 5783 5786
5650 5648 5646 5644 5660 5662 5661 5667 5669 5666 5654 5672 5682 5706 5706 5702 5706 5705 5728 5722 5714 5719 5724 5728 5732 5734 5736 5749 5758 5759 5767 5765 5771 5771 5774 5772 5775 5758 5773 5763 5770 5776 5778 5784 5789
5649 5649 5647 5650 5655 5661 5660 5663 5662 5654 5632 5662 5679 5683 5687 5696 5699 5702 5706 5720 5726 5716 5722 5728 5743 5741 5745 5752 5753 5758 5753 5755 5765 5774 5752 5787 5784 5746 5751 5743 5763 5773 5779 5785 5785
5652 5652 5649 5653 5658 5658 5659 5659 5652 5649 5656 5652 5662 5681 5688 5681 5681 5692 5691 5695 5695 5689 5696 5710 5716 5725 5735 5733 5746 5746 5747 5728 5725 5735 5755 5785 5774 5730 5742 5747 5753 5758 5768 5779 5790
5650 5652 5654 5657 5657 5657 5660 5655 5636 5637 5647 5658 5662 5674 5670 5677 5671 5679 5681 5680 5690 5699 5706 5696 5683 5711 5720 5728 5734 5740 5754 5750 5718 5735 5760 5767 5750 5714 5744 5752 5750 5744 5751 5762 5776
5651 5663 5668 5664 5659 5660 5658 5645 5632 5635 5643 5647 5661 5663 5660 5666 5671 5668 5673 5671 5671 5685 5692 5696 5680 5700 5707 5722 5727 5737 5731 5769 5758 5773 5767 5753 5718 5736 5740 5740 5740 5735 5739 5750 5769
5664 5668 5667 5667 5663 5664 5658 5627 5633 5638 5642 5650 5654 5658 5656 5659 5661 5666 5661 5659 5665 5673 5687 5690 5673 5690 5698 5711 5721 5727 5745 5728 5744 5727 5734 5739 5724 5713 5712 5715 5724 5723 5726 5739 5752
5662 5665 5668 5668 5665 5664 5644 5632 5634 5640 5642 5644 5643 5642 5652 5650 5663 5654 5645 5650 5657 5667 5681 5688 5691 5676 5691 5689 5696 5712 5721 5731 5748 5751 5745 5732 5715 5700 5699 5702 5708 5710 5718 5727 5738
5667 5659 5670 5670 5654 5649 5640 5634 5622 5636 5643 5643 5645 5647 5642 5645 5647 5648 5643 5644 5650 5660 5663 5671 5687 5674 5672 5673 5681 5695 5703 5717 5722 5719 5746 5758 5683 5689 5690 5694 5702 5705 5711 5718 5726
5660 5658 5671 5673 5646 5637 5632 5627 5628 5631 5630 5636 5636 5640 5642 5640 5631 5639 5639 5639 5650 5652 5652 5662 5668 5659 5657 5669 5673 5679 5686 5702 5715 5731 5732 5735 5684 5676 5680 5685 5692 5698 5706 5711 5716
5654 5650 5654 5656 5645 5640 5630 5625 5620 5623 5624 5628 5628 5636 5638 5636 5642 5633 5631 5634 5642 5644 5637 5653 5660 5660 5669 5666 5676 5668 5672 5683 5702 5711 5727 5725 5664 5655 5666 5671 5678 5688 5696 5703 5710
5646 5637 5635 5639 5635 5634 5630 5624 5619 5615 5619 5622 5620 5623 5629 5625 5629 5625 5629 5630 5635 5628 5640 5651 5643 5647 5648 5648 5652 5656 5661 5667 5679 5691 5697 5702 5666 5656 5659 5664 5668 5678 5686 5689 5693
5641 5637 5634 5630 5627 5630 5619 5621 5618 5615 5616 5612 5611 5616 5621 5620 5621 5619 5625 5626 5626 5629 5630 5635 5629 5636 5633 5636 5642 5646 5653 5659 5666 5672 5687 5657 5638 5650 5654 5660 5663 5665 5671 5677 5682
5630 5630 5638 5610 5626 5629 5623 5619 5615 5616 5610 5614 5611 5614 5607 5603 5611 5616 5617 5618 5618 5618 5617 5620 5622 5621 5629 5624 5631 5632 5651 5655 5658 5662 5676 5653 5651 5646 5646 5654 5657 5659 5662 5664 5667